QPF
0.01 0.01 0.01 0.01 0.00 0.00 0.00 0.00 0.00 0.00 0.01 0.01 0.01 0.01 0.01 0.00 0.00 0.00 0.00 0.00 0.00 0.01 0.01 0.01 0.01 0.02 0.02 0.02 0.03 0.03 0.03 0.02 0.02 0.02 0.03 0.03 0.03 0.02 0.01 0.01 0.00 0.00 0.00 0.00
0.01 0.01 0.01 0.01 0.00 0.00 0.00 0.00 0.00 0.00 0.01 0.01 0.01 0.00 0.00 0.00 0.00 0.00 0.00 0.01 0.01 0.01 0.01 0.01 0.01 0.02 0.02 0.01 0.01 0.01 0.01 0.01 0.01 0.02 0.04 0.04 0.03 0.03 0.02 0.02 0.01 0.01 0.01 0.01
0.01 0.01 0.01 0.01 0.00 0.00 0.00 0.00 0.00 0.00 0.01 0.01 0.01 0.01 0.00 0.00 0.00 0.00 0.01 0.01 0.01 0.01 0.01 0.01 0.01 0.01 0.00 0.00 0.00 0.01 0.01 0.01 0.02 0.02 0.02 0.03 0.04 0.04 0.04 0.02 0.01 0.00 0.01 0.01
0.01 0.01 0.01 0.01 0.00 0.00 0.00 0.00 0.01 0.01 0.01 0.01 0.01 0.02 0.01 0.01 0.01 0.01 0.01 0.01 0.01 0.01 0.01 0.01 0.01 0.01 0.01 0.01 0.01 0.01 0.01 0.01 0.02 0.02 0.02 0.02 0.03 0.04 0.02 0.01 0.00 0.00 0.00 0.00
0.01 0.01 0.01 0.01 0.00 0.00 0.01 0.01 0.01 0.01 0.01 0.01 0.01 0.02 0.01 0.01 0.01 0.00 0.00 0.00 0.01 0.01 0.01 0.00 0.01 0.01 0.01 0.02 0.02 0.02 0.02 0.02 0.02 0.03 0.04 0.03 0.03 0.01 0.00 0.00 0.00 0.00 0.00 0.01
0.01 0.01 0.01 0.01 0.00 0.01 0.00 0.01 0.01 0.01 0.00 0.00 0.01 0.02 0.01 0.00 0.00 0.00 0.01 0.00 0.00 0.00 0.01 0.01 0.00 0.00 0.00 0.01 0.02 0.03 0.03 0.03 0.03 0.05 0.05 0.05 0.04 0.02 0.01 0.01 0.01 0.01 0.01 0.01
0.01 0.01 0.01 0.01 0.01 0.01 0.01 0.00 0.00 0.00 0.00 0.00 0.00 0.01 0.01 0.00 0.00 0.00 0.01 0.01 0.01 0.01 0.01 0.01 0.01 0.01 0.01 0.01 0.01 0.02 0.02 0.03 0.03 0.05 0.06 0.06 0.06 0.04 0.03 0.03 0.02 0.02 0.02 0.02
0.01 0.01 0.01 0.01 0.01 0.00 0.00 0.00 0.00 0.00 0.01 0.01 0.01 0.01 0.01 0.01 0.01 0.01 0.01 0.01 0.01 0.01 0.01 0.01 0.02 0.02 0.02 0.02 0.02 0.02 0.02 0.02 0.03 0.03 0.04 0.07 0.08 0.09 0.08 0.07 0.06 0.06 0.05 0.04
0.01 0.02 0.02 0.02 0.01 0.00 0.00 0.00 0.00 0.00 0.00 0.01 0.01 0.01 0.01 0.02 0.01 0.01 0.01 0.02 0.02 0.02 0.02 0.02 0.03 0.03 0.03 0.03 0.03 0.03 0.03 0.03 0.03 0.04 0.05 0.07 0.08 0.09 0.09 0.08 0.08 0.09 0.09 0.08
0.01 0.01 0.01 0.01 0.01 0.00 0.00 0.00 0.00 0.00 0.01 0.01 0.01 0.01 0.01 0.01 0.02 0.01 0.01 0.01 0.02 0.02 0.03 0.03 0.04 0.04 0.04 0.03 0.03 0.03 0.03 0.03 0.04 0.05 0.06 0.07 0.08 0.09 0.10 0.09 0.07 0.07 0.07 0.05
0.01 0.02 0.01 0.01 0.01 0.01 0.01 0.01 0.01 0.01 0.01 0.01 0.01 0.01 0.01 0.01 0.01 0.01 0.01 0.01 0.02 0.03 0.04 0.05 0.05 0.04 0.04 0.04 0.04 0.05 0.04 0.04 0.03 0.03 0.03 0.04 0.06 0.07 0.08 0.08 0.10 0.11 0.10 0.08
0.02 0.03 0.03 0.02 0.02 0.01 0.02 0.02 0.03 0.02 0.01 0.01 0.01 0.01 0.01 0.01 0.01 0.01 0.01 0.02 0.02 0.03 0.03 0.04 0.04 0.04 0.04 0.04 0.05 0.05 0.05 0.05 0.04 0.03 0.03 0.03 0.03 0.03 0.04 0.05 0.05 0.07 0.08 0.08
0.03 0.04 0.04 0.04 0.02 0.03 0.03 0.03 0.03 0.03 0.02 0.01 0.01 0.01 0.01 0.01 0.01 0.01 0.02 0.03 0.03 0.03 0.03 0.04 0.04 0.03 0.03 0.04 0.05 0.06 0.07 0.07 0.06 0.04 0.04 0.04 0.03 0.03 0.03 0.04 0.04 0.02 0.03 0.04
0.04 0.06 0.07 0.05 0.04 0.04 0.05 0.04 0.04 0.04 0.04 0.03 0.03 0.04 0.03 0.02 0.02 0.02 0.02 0.03 0.04 0.04 0.04 0.04 0.04 0.03 0.03 0.04 0.05 0.06 0.08 0.10 0.10 0.09 0.08 0.06 0.05 0.04 0.04 0.04 0.03 0.02 0.02 0.03
0.05 0.06 0.08 0.07 0.07 0.07 0.06 0.07 0.07 0.06 0.05 0.03 0.03 0.03 0.03 0.03 0.02 0.02 0.02 0.03 0.04 0.04 0.05 0.04 0.03 0.03 0.03 0.03 0.04 0.05 0.06 0.06 0.07 0.07 0.07 0.06 0.05 0.04 0.02 0.02 0.02 0.02 0.02 0.02
0.07 0.07 0.07 0.08 0.08 0.07 0.06 0.06 0.08 0.08 0.07 0.06 0.05 0.04 0.04 0.03 0.02 0.02 0.03 0.04 0.05 0.05 0.04 0.05 0.04 0.03 0.03 0.03 0.04 0.05 0.05 0.07 0.08 0.09 0.09 0.08 0.06 0.05 0.04 0.03 0.02 0.02 0.02 0.03
0.06 0.08 0.08 0.09 0.08 0.07 0.05 0.05 0.05 0.06 0.05 0.04 0.04 0.04 0.04 0.04 0.02 0.02 0.03 0.04 0.05 0.05 0.04 0.03 0.03 0.03 0.03 0.03 0.05 0.05 0.05 0.05 0.06 0.08 0.10 0.11 0.08 0.06 0.05 0.03 0.02 0.02 0.02 0.03
0.04 0.05 0.06 0.07 0.09 0.08 0.07 0.06 0.05 0.05 0.04 0.05 0.04 0.03 0.03 0.03 0.03 0.02 0.03 0.04 0.05 0.05 0.04 0.02 0.02 0.02 0.02 0.02 0.03 0.05 0.03 0.03 0.03 0.03 0.04 0.06 0.06 0.06 0.06 0.05 0.03 0.03 0.04 0.03
0.03 0.03 0.04 0.04 0.06 0.06 0.06 0.07 0.07 0.07 0.04 0.05 0.06 0.05 0.05 0.05 0.05 0.04 0.04 0.04 0.04 0.04 0.03 0.02 0.02 0.02 0.02 0.02 0.02 0.02 0.02 0.02 0.02 0.02 0.02 0.04 0.05 0.05 0.05 0.05 0.04 0.04 0.04 0.03
0.04 0.03 0.03 0.03 0.03 0.03 0.03 0.04 0.05 0.07 0.05 0.04 0.05 0.05 0.05 0.06 0.06 0.05 0.05 0.05 0.04 0.03 0.03 0.03 0.02 0.02 0.02 0.03 0.03 0.02 0.02 0.02 0.02 0.02 0.02 0.03 0.03 0.04 0.04 0.04 0.03 0.03 0.04 0.04
0.04 0.03 0.02 0.02 0.02 0.01 0.01 0.02 0.03 0.04 0.04 0.04 0.06 0.06 0.06 0.05 0.05 0.06 0.06 0.05 0.04 0.04 0.04 0.03 0.03 0.02 0.02 0.02 0.03 0.03 0.03 0.03 0.02 0.02 0.03 0.03 0.03 0.04 0.04 0.04 0.04 0.04 0.04 0.03
0.02 0.02 0.02 0.02 0.03 0.02 0.01 0.02 0.02 0.02 0.03 0.04 0.04 0.04 0.04 0.05 0.05 0.06 0.05 0.05 0.05 0.04 0.03 0.03 0.03 0.03 0.04 0.03 0.02 0.02 0.03 0.03 0.03 0.02 0.03 0.03 0.03 0.03 0.03 0.04 0.04 0.04 0.04 0.03
0.02 0.01 0.02 0.02 0.03 0.02 0.02 0.01 0.01 0.02 0.04 0.04 0.03 0.02 0.02 0.02 0.03 0.03 0.02 0.03 0.04 0.03 0.03 0.02 0.02 0.02 0.03 0.03 0.02 0.03 0.03 0.03 0.03 0.03 0.03 0.04 0.04 0.04 0.04 0.04 0.04 0.04 0.04 0.04
0.02 0.02 0.02 0.02 0.02 0.01 0.01 0.01 0.01 0.02 0.04 0.04 0.04 0.03 0.03 0.03 0.02 0.02 0.01 0.02 0.03 0.02 0.02 0.02 0.01 0.02 0.02 0.02 0.03 0.03 0.03 0.03 0.03 0.03 0.04 0.04 0.04 0.04 0.04 0.04 0.04 0.04 0.06 0.05
0.01 0.02 0.02 0.02 0.02 0.01 0.01 0.01 0.01 0.01 0.03 0.03 0.04 0.04 0.03 0.03 0.03 0.03 0.04 0.04 0.03 0.03 0.02 0.02 0.02 0.02 0.02 0.02 0.02 0.02 0.02 0.02 0.02 0.02 0.03 0.04 0.05 0.06 0.07 0.07 0.07 0.08 0.08 0.08
0.01 0.01 0.02 0.01 0.01 0.01 0.01 0.00 0.01 0.01 0.02 0.02 0.03 0.03 0.02 0.03 0.03 0.03 0.03 0.03 0.03 0.03 0.03 0.03 0.03 0.03 0.02 0.03 0.03 0.03 0.03 0.02 0.02 0.03 0.04 0.05 0.06 0.07 0.08 0.07 0.06 0.06 0.06 0.05
0.00 0.01 0.01 0.01 0.00 0.00 0.00 0.00 0.01 0.01 0.01 0.02 0.02 0.02 0.01 0.01 0.01 0.02 0.02 0.02 0.02 0.03 0.03 0.04 0.04 0.04 0.03 0.04 0.05 0.04 0.03 0.03 0.03 0.04 0.05 0.05 0.05 0.05 0.05 0.04 0.04 0.04 0.03 0.03
MSLP
1009.57 1009.25 1009.04 1008.96 1008.97 1009.04 1009.08 1009.05 1008.88 1008.56 1008.09 1007.51 1006.86 1006.23 1005.66 1005.22 1004.91 1004.74 1004.68 1004.70 1004.77 1004.85 1004.93 1005.02 1005.14 1005.33 1005.60 1005.99 1006.47 1007.04 1007.66 1008.29 1008.87 1009.38 1009.78 1010.07 1010.28 1010.43 1010.56 1010.69 1010.86 1011.06 1011.31 1011.58
1010.36 1009.93 1009.53 1009.18 1008.88 1008.64 1008.42 1008.21 1007.97 1007.70 1007.40 1007.09 1006.78 1006.49 1006.26 1006.07 1005.94 1005.84 1005.76 1005.67 1005.57 1005.46 1005.35 1005.27 1005.25 1005.33 1005.54 1005.87 1006.32 1006.86 1007.44 1008.01 1008.53 1008.95 1009.28 1009.50 1009.63 1009.72 1009.79 1009.88 1010.01 1010.19 1010.41 1010.65
1011.21 1010.70 1010.13 1009.54 1008.98 1008.46 1008.00 1007.62 1007.30 1007.07 1006.90 1006.81 1006.78 1006.79 1006.83 1006.88 1006.91 1006.89 1006.81 1006.66 1006.45 1006.20 1005.95 1005.74 1005.62 1005.61 1005.75 1006.03 1006.44 1006.92 1007.43 1007.91 1008.34 1008.67 1008.89 1009.02 1009.07 1009.08 1009.09 1009.12 1009.20 1009.33 1009.51 1009.71
1012.05 1011.46 1010.76 1009.99 1009.21 1008.47 1007.81 1007.27 1006.88 1006.65 1006.58 1006.64 1006.81 1007.05 1007.31 1007.55 1007.71 1007.78 1007.72 1007.55 1007.28 1006.96 1006.63 1006.35 1006.17 1006.12 1006.21 1006.45 1006.79 1007.20 1007.63 1008.02 1008.33 1008.55 1008.66 1008.68 1008.64 1008.58 1008.52 1008.49 1008.51 1008.58 1008.70 1008.84
1012.76 1012.11 1011.31 1010.41 1009.46 1008.56 1007.75 1007.10 1006.64 1006.40 1006.37 1006.52 1006.83 1007.22 1007.63 1007.99 1008.26 1008.40 1008.39 1008.24 1007.97 1007.64 1007.30 1007.02 1006.83 1006.76 1006.84 1007.04 1007.33 1007.67 1008.00 1008.29 1008.49 1008.60 1008.60 1008.53 1008.40 1008.26 1008.14 1008.05 1008.01 1008.02 1008.07 1008.14
1013.25 1012.54 1011.67 1010.68 1009.64 1008.63 1007.73 1007.01 1006.50 1006.24 1006.22 1006.42 1006.79 1007.26 1007.75 1008.20 1008.54 1008.74 1008.79 1008.69 1008.47 1008.19 1007.90 1007.65 1007.49 1007.45 1007.53 1007.71 1007.95 1008.22 1008.47 1008.66 1008.77 1008.77 1008.69 1008.53 1008.34 1008.14 1007.97 1007.83 1007.74 1007.69 1007.67 1007.66
1013.42 1012.67 1011.75 1010.72 1009.65 1008.61 1007.68 1006.93 1006.40 1006.13 1006.11 1006.32 1006.70 1007.19 1007.71 1008.19 1008.58 1008.83 1008.94 1008.91 1008.77 1008.56 1008.35 1008.18 1008.09 1008.09 1008.18 1008.35 1008.56 1008.78 1008.95 1009.06 1009.08 1009.01 1008.85 1008.64 1008.41 1008.17 1007.96 1007.79 1007.66 1007.56 1007.48 1007.40
1013.28 1012.48 1011.55 1010.52 1009.46 1008.45 1007.55 1006.82 1006.31 1006.05 1006.03 1006.22 1006.59 1007.07 1007.58 1008.06 1008.46 1008.75 1008.91 1008.95 1008.89 1008.78 1008.66 1008.58 1008.55 1008.59 1008.70 1008.87 1009.05 1009.21 1009.32 1009.37 1009.33 1009.21 1009.02 1008.78 1008.52 1008.28 1008.05 1007.86 1007.71 1007.58 1007.46 1007.32
1012.84 1012.02 1011.10 1010.11 1009.13 1008.19 1007.37 1006.71 1006.25 1006.02 1006.00 1006.18 1006.52 1006.96 1007.44 1007.89 1008.29 1008.59 1008.78 1008.88 1008.90 1008.87 1008.83 1008.81 1008.83 1008.91 1009.02 1009.17 1009.32 1009.44 1009.51 1009.51 1009.43 1009.29 1009.08 1008.85 1008.60 1008.36 1008.14 1007.95 1007.79 1007.64 1007.49 1007.32
1012.19 1011.37 1010.49 1009.59 1008.71 1007.89 1007.19 1006.64 1006.26 1006.07 1006.08 1006.25 1006.55 1006.94 1007.37 1007.79 1008.16 1008.45 1008.66 1008.78 1008.84 1008.86 1008.87 1008.89 1008.93 1009.01 1009.11 1009.22 1009.33 1009.41 1009.44 1009.41 1009.32 1009.18 1008.99 1008.78 1008.56 1008.34 1008.14 1007.97 1007.80 1007.64 1007.47 1007.29
1011.43 1010.63 1009.83 1009.04 1008.29 1007.63 1007.07 1006.64 1006.37 1006.25 1006.28 1006.45 1006.73 1007.07 1007.45 1007.81 1008.14 1008.40 1008.59 1008.72 1008.78 1008.81 1008.82 1008.83 1008.85 1008.89 1008.95 1009.01 1009.07 1009.11 1009.11 1009.07 1008.99 1008.87 1008.71 1008.54 1008.36 1008.18 1008.00 1007.83 1007.67 1007.50 1007.32 1007.12
1010.65 1009.90 1009.19 1008.53 1007.94 1007.44 1007.04 1006.75 1006.59 1006.55 1006.62 1006.79 1007.05 1007.35 1007.67 1007.98 1008.25 1008.47 1008.62 1008.71 1008.75 1008.74 1008.71 1008.66 1008.62 1008.60 1008.58 1008.58 1008.58 1008.58 1008.56 1008.53 1008.47 1008.38 1008.27 1008.15 1008.01 1007.86 1007.71 1007.54 1007.37 1007.19 1006.99 1006.77
1009.89 1009.23 1008.63 1008.11 1007.68 1007.34 1007.09 1006.94 1006.89 1006.92 1007.04 1007.23 1007.46 1007.73 1008.00 1008.25 1008.46 1008.62 1008.72 1008.75 1008.72 1008.65 1008.54 1008.41 1008.29 1008.17 1008.07 1007.99 1007.94 1007.90 1007.88 1007.86 1007.83 1007.80 1007.75 1007.68 1007.58 1007.46 1007.31 1007.14 1006.95 1006.74 1006.50 1006.26
1009.18 1008.61 1008.13 1007.75 1007.47 1007.29 1007.18 1007.16 1007.20 1007.31 1007.47 1007.67 1007.89 1008.13 1008.36 1008.55 1008.71 1008.81 1008.84 1008.79 1008.69 1008.53 1008.32 1008.10 1007.87 1007.66 1007.47 1007.33 1007.22 1007.17 1007.15 1007.16 1007.18 1007.20 1007.21 1007.19 1007.14 1007.04 1006.89 1006.70 1006.47 1006.21 1005.92 1005.63
1008.52 1008.04 1007.68 1007.43 1007.28 1007.23 1007.25 1007.32 1007.45 1007.62 1007.81 1008.02 1008.24 1008.45 1008.64 1008.80 1008.90 1008.94 1008.90 1008.79 1008.60 1008.35 1008.05 1007.73 1007.41 1007.11 1006.85 1006.65 1006.51 1006.45 1006.45 1006.50 1006.58 1006.66 1006.73 1006.77 1006.74 1006.66 1006.50 1006.28 1006.00 1005.67 1005.33 1004.97
1007.89 1007.50 1007.25 1007.11 1007.08 1007.12 1007.24 1007.39 1007.58 1007.79 1008.00 1008.22 1008.43 1008.62 1008.78 1008.90 1008.96 1008.95 1008.85 1008.68 1008.42 1008.09 1007.72 1007.32 1006.92 1006.55 1006.23 1006.00 1005.85 1005.80 1005.82 1005.92 1006.06 1006.20 1006.33 1006.41 1006.42 1006.34 1006.17 1005.92 1005.59 1005.20 1004.78 1004.35
1007.31 1007.01 1006.84 1006.79 1006.84 1006.96 1007.14 1007.35 1007.57 1007.80 1008.02 1008.24 1008.43 1008.60 1008.74 1008.82 1008.84 1008.79 1008.66 1008.43 1008.13 1007.74 1007.31 1006.86 1006.41 1005.99 1005.65 1005.39 1005.25 1005.21 1005.27 1005.41 1005.60 1005.80 1005.98 1006.10 1006.14 1006.07 1005.90 1005.62 1005.24 1004.81 1004.33 1003.84
1006.84 1006.60 1006.50 1006.51 1006.62 1006.78 1006.99 1007.22 1007.45 1007.67 1007.88 1008.08 1008.25 1008.40 1008.50 1008.56 1008.55 1008.47 1008.31 1008.06 1007.72 1007.31 1006.85 1006.36 1005.88 1005.45 1005.09 1004.84 1004.70 1004.68 1004.76 1004.94 1005.16 1005.40 1005.62 1005.77 1005.83 1005.78 1005.61 1005.32 1004.93 1004.47 1003.96 1003.44
1006.53 1006.35 1006.30 1006.34 1006.47 1006.65 1006.85 1007.07 1007.27 1007.47 1007.65 1007.81 1007.94 1008.05 1008.12 1008.15 1008.12 1008.02 1007.83 1007.57 1007.22 1006.80 1006.33 1005.84 1005.37 1004.93 1004.57 1004.32 1004.18 1004.16 1004.25 1004.43 1004.67 1004.93 1005.16 1005.33 1005.41 1005.38 1005.22 1004.95 1004.58 1004.13 1003.63 1003.11
1006.45 1006.31 1006.29 1006.35 1006.47 1006.63 1006.80 1006.97 1007.13 1007.27 1007.39 1007.50 1007.58 1007.64 1007.66 1007.66 1007.60 1007.48 1007.29 1007.02 1006.67 1006.26 1005.81 1005.33 1004.86 1004.43 1004.07 1003.81 1003.66 1003.62 1003.70 1003.86 1004.08 1004.32 1004.54 1004.72 1004.81 1004.80 1004.68 1004.46 1004.14 1003.74 1003.30 1002.83
1006.61 1006.50 1006.49 1006.54 1006.64 1006.75 1006.87 1006.97 1007.06 1007.12 1007.17 1007.20 1007.21 1007.21 1007.19 1007.14 1007.05 1006.91 1006.71 1006.45 1006.12 1005.73 1005.29 1004.83 1004.38 1003.95 1003.59 1003.31 1003.13 1003.05 1003.08 1003.19 1003.36 1003.55 1003.75 1003.91 1004.01 1004.03 1003.96 1003.81 1003.57 1003.27 1002.93 1002.56
1006.97 1006.89 1006.87 1006.90 1006.94 1007.00 1007.04 1007.06 1007.06 1007.03 1006.99 1006.94 1006.87 1006.80 1006.72 1006.62 1006.50 1006.35 1006.15 1005.89 1005.58 1005.22 1004.81 1004.37 1003.93 1003.51 1003.14 1002.83 1002.60 1002.46 1002.42 1002.45 1002.54 1002.68 1002.82 1002.96 1003.06 1003.11 1003.11 1003.04 1002.91 1002.74 1002.53 1002.29
1007.43 1007.36 1007.32 1007.31 1007.31 1007.29 1007.25 1007.18 1007.08 1006.96 1006.83 1006.69 1006.55 1006.41 1006.27 1006.13 1005.98 1005.81 1005.60 1005.36 1005.07 1004.73 1004.35 1003.94 1003.52 1003.10 1002.71 1002.37 1002.09 1001.89 1001.76 1001.70 1001.71 1001.77 1001.86 1001.97 1002.07 1002.15 1002.21 1002.24 1002.24 1002.20 1002.14 1002.05
1007.85 1007.77 1007.71 1007.66 1007.59 1007.50 1007.38 1007.22 1007.04 1006.84 1006.62 1006.41 1006.20 1005.99 1005.81 1005.63 1005.45 1005.27 1005.06 1004.83 1004.57 1004.26 1003.91 1003.53 1003.13 1002.72 1002.33 1001.96 1001.63 1001.36 1001.16 1001.02 1000.95 1000.94 1000.98 1001.06 1001.16 1001.28 1001.41 1001.53 1001.65 1001.75 1001.83 1001.89
1008.07 1007.98 1007.89 1007.79 1007.67 1007.51 1007.32 1007.10 1006.85 1006.59 1006.31 1006.04 1005.78 1005.53 1005.31 1005.10 1004.90 1004.71 1004.52 1004.30 1004.06 1003.78 1003.47 1003.13 1002.75 1002.36 1001.97 1001.59 1001.24 1000.93 1000.68 1000.49 1000.36 1000.30 1000.30 1000.36 1000.48 1000.63 1000.82 1001.03 1001.24 1001.46 1001.66 1001.85
1007.98 1007.87 1007.75 1007.61 1007.44 1007.24 1007.00 1006.74 1006.45 1006.15 1005.85 1005.54 1005.26 1004.99 1004.75 1004.53 1004.33 1004.14 1003.94 1003.74 1003.53 1003.28 1003.01 1002.70 1002.37 1002.02 1001.65 1001.29 1000.95 1000.63 1000.36 1000.15 1000.00 999.92 999.92 999.98 1000.11 1000.30 1000.54 1000.81 1001.10 1001.40 1001.68 1001.94
1007.53 1007.39 1007.24 1007.07 1006.88 1006.65 1006.40 1006.13 1005.84 1005.54 1005.23 1004.94 1004.65 1004.39 1004.14 1003.92 1003.72 1003.53 1003.35 1003.17 1002.97 1002.76 1002.53 1002.27 1001.98 1001.68 1001.36 1001.05 1000.75 1000.47 1000.23 1000.04 999.91 999.85 999.86 999.95 1000.10 1000.32 1000.59 1000.90 1001.23 1001.56 1001.87 1002.16
Thickness
5737 5748 5752 5754 5757 5757 5755 5751 5747 5756 5761 5777 5786 5791 5796 5800 5801 5801 5800 5800 5800 5798 5797 5796 5795 5793 5791 5788 5785 5782 5777 5773 5770 5768 5765 5762 5759 5756 5753 5750 5748 5745 5743 5741
5729 5740 5744 5744 5750 5753 5752 5754 5755 5759 5761 5779 5784 5787 5789 5791 5794 5794 5795 5797 5797 5796 5795 5794 5793 5791 5789 5786 5783 5780 5775 5772 5769 5765 5762 5758 5756 5752 5749 5746 5744 5741 5738 5736
5707 5724 5733 5724 5740 5745 5747 5750 5751 5750 5761 5772 5773 5778 5781 5784 5787 5789 5791 5793 5793 5793 5793 5792 5792 5790 5787 5785 5781 5776 5772 5769 5765 5762 5758 5755 5752 5748 5745 5742 5739 5736 5734 5732
5693 5709 5702 5723 5744 5747 5743 5745 5750 5754 5760 5765 5769 5775 5779 5782 5782 5784 5787 5788 5789 5790 5790 5790 5790 5788 5785 5781 5776 5772 5767 5764 5761 5758 5755 5751 5747 5744 5741 5737 5735 5732 5730 5728
5678 5684 5697 5718 5734 5737 5733 5733 5745 5747 5753 5759 5765 5768 5769 5775 5778 5780 5783 5785 5786 5786 5786 5785 5784 5783 5779 5775 5771 5766 5762 5759 5756 5753 5750 5746 5742 5739 5736 5732 5730 5727 5725 5723
5670 5678 5680 5707 5729 5736 5731 5720 5737 5739 5742 5747 5752 5744 5752 5767 5771 5773 5776 5777 5778 5779 5778 5777 5776 5775 5771 5767 5764 5760 5758 5755 5752 5748 5744 5741 5737 5733 5730 5727 5724 5722 5719 5717
5664 5668 5681 5705 5720 5727 5707 5713 5730 5733 5735 5737 5738 5743 5752 5759 5762 5765 5768 5769 5770 5770 5768 5768 5768 5766 5762 5759 5757 5756 5753 5749 5745 5741 5738 5735 5731 5727 5724 5721 5718 5715 5713 5711
5653 5658 5670 5699 5705 5703 5704 5716 5721 5725 5728 5730 5733 5739 5743 5747 5750 5754 5757 5759 5759 5758 5758 5759 5759 5756 5753 5751 5751 5748 5744 5740 5737 5734 5730 5728 5724 5720 5718 5714 5710 5708 5705 5704
5653 5660 5675 5684 5690 5697 5702 5706 5712 5715 5720 5723 5725 5727 5731 5734 5737 5741 5745 5747 5748 5747 5747 5747 5748 5746 5743 5742 5741 5738 5734 5730 5728 5725 5721 5718 5716 5713 5709 5706 5704 5701 5699 5697
5648 5658 5667 5674 5681 5688 5694 5697 5704 5708 5711 5713 5714 5718 5720 5723 5725 5728 5731 5734 5736 5735 5734 5734 5736 5735 5734 5733 5732 5729 5725 5722 5718 5714 5711 5709 5708 5706 5703 5700 5698 5695 5692 5690
5640 5649 5657 5665 5670 5676 5683 5689 5693 5698 5702 5703 5704 5706 5709 5711 5713 5715 5718 5721 5722 5722 5722 5723 5724 5725 5724 5723 5722 5719 5717 5714 5710 5707 5703 5701 5699 5698 5697 5696 5693 5689 5687 5685
5633 5641 5642 5650 5660 5666 5671 5676 5681 5685 5688 5692 5693 5695 5697 5698 5701 5703 5706 5708 5709 5710 5710 5711 5712 5713 5713 5713 5712 5709 5707 5705 5703 5699 5695 5692 5691 5690 5690 5688 5687 5683 5681 5679
5633 5639 5640 5646 5652 5657 5661 5667 5672 5676 5678 5680 5682 5684 5685 5686 5689 5692 5694 5696 5697 5698 5699 5700 5700 5701 5702 5703 5702 5700 5698 5696 5694 5692 5688 5685 5684 5682 5681 5680 5678 5676 5674 5672
5628 5631 5634 5639 5643 5649 5654 5659 5663 5666 5669 5671 5672 5673 5674 5676 5677 5679 5681 5684 5686 5687 5688 5690 5691 5691 5692 5692 5692 5691 5689 5688 5685 5683 5681 5678 5676 5674 5673 5671 5670 5670 5668 5666
5623 5625 5627 5632 5635 5639 5644 5649 5650 5653 5656 5659 5661 5662 5663 5664 5664 5666 5669 5673 5675 5676 5677 5678 5679 5680 5681 5682 5682 5680 5679 5678 5676 5674 5673 5671 5668 5666 5664 5663 5662 5662 5661 5660
5616 5619 5621 5623 5626 5629 5633 5637 5638 5640 5643 5646 5648 5650 5652 5652 5653 5654 5657 5660 5661 5663 5665 5667 5667 5669 5670 5671 5671 5670 5670 5669 5668 5665 5663 5661 5659 5658 5656 5655 5654 5654 5654 5653
5607 5609 5612 5615 5618 5621 5624 5627 5629 5632 5633 5634 5636 5639 5641 5641 5641 5642 5645 5648 5649 5651 5653 5655 5658 5659 5659 5661 5661 5661 5661 5660 5659 5657 5654 5652 5650 5649 5648 5647 5646 5646 5646 5646
5605 5607 5609 5610 5611 5613 5616 5619 5621 5622 5622 5624 5627 5628 5629 5630 5631 5632 5634 5636 5638 5640 5643 5646 5649 5650 5651 5651 5652 5652 5652 5651 5649 5647 5645 5644 5642 5640 5639 5638 5638 5637 5637 5637
5601 5602 5604 5606 5606 5608 5609 5611 5612 5613 5615 5616 5617 5617 5618 5619 5620 5621 5623 5624 5626 5629 5633 5637 5638 5640 5641 5642 5643 5643 5643 5642 5639 5638 5637 5636 5635 5633 5630 5629 5628 5628 5628 5627
5595 5597 5598 5598 5600 5601 5602 5603 5605 5605 5607 5608 5608 5608 5609 5610 5612 5613 5613 5614 5617 5621 5624 5626 5628 5630 5632 5633 5634 5634 5633 5632 5631 5630 5628 5627 5627 5625 5623 5621 5620 5620 5619 5618
5587 5589 5590 5591 5593 5595 5596 5597 5598 5600 5600 5601 5601 5601 5602 5603 5604 5605 5605 5607 5611 5613 5615 5616 5618 5620 5622 5623 5624 5624 5624 5624 5623 5622 5621 5619 5618 5616 5615 5613 5612 5611 5610 5610
5580 5581 5583 5584 5586 5587 5589 5590 5591 5593 5593 5594 5595 5596 5596 5597 5598 5599 5599 5600 5603 5605 5606 5607 5609 5611 5613 5614 5615 5615 5615 5615 5614 5613 5612 5611 5609 5608 5607 5605 5604 5602 5601 5600
5574 5575 5577 5578 5579 5580 5582 5584 5585 5586 5587 5588 5589 5589 5590 5591 5592 5592 5593 5595 5597 5598 5599 5599 5601 5602 5603 5604 5605 5606 5606 5605 5605 5604 5603 5602 5601 5600 5599 5597 5596 5594 5593 5592
5569 5570 5572 5573 5574 5575 5576 5578 5579 5581 5582 5582 5583 5584 5585 5586 5586 5587 5588 5589 5590 5591 5591 5591 5591 5593 5594 5595 5596 5596 5595 5595 5595 5594 5594 5593 5592 5591 5590 5589 5588 5586 5584 5583
5565 5566 5568 5569 5570 5571 5572 5573 5574 5576 5577 5577 5578 5579 5580 5581 5581 5582 5583 5583 5584 5585 5585 5585 5585 5585 5586 5587 5587 5587 5586 5586 5586 5585 5585 5584 5583 5582 5581 5580 5579 5577 5575 5573
5562 5563 5565 5566 5567 5568 5569 5570 5570 5571 5571 5572 5573 5574 5575 5576 5576 5576 5577 5578 5578 5578 5579 5579 5579 5579 5579 5579 5579 5578 5578 5578 5578 5577 5577 5576 5575 5573 5572 5571 5570 5568 5565 5564
5560 5560 5562 5564 5565 5566 5567 5567 5567 5568 5568 5568 5569 5570 5570 5570 5571 5571 5571 5571 5571 5572 5572 5572 5572 5572 5572 5571 5571 5570 5570 5570 5570 5569 5568 5567 5565 5564 5562 5561 5559 5557 5556 5554